Flag for Spain Weather past 2 weeks in Almería, Spain

Now
47 °F

Cool.


Feels Like: 47 °F
Forecast: 58 / 69 °F
Wind: 2 mph from West

Location: Almeria / Aeropuerto

Current Time: Jan 29, 2015 at 10:00:27 AM

Latest Report: Jan 29, 2015 at 9:00 AM


Visibility: N/A

Pressure: 30.09 "Hg

Humidity: 65%

Dew point: 35 °F

Location of AlmeríaLocation

Historic Weather in Almería — Graph

°F

Almería temperature yesterday

Maximum temperature yesterday: 63 °F (at 3:00 PM)
Minimum temperature yesterday: 48 °F (at 6:00 AM)
Average temperature yesterday: 55 °F

Past Weeks' High & Low Weather Summary

 TemperatureHumidityPressure
High64 °F (Jan 14, 3:00 PM)93% (Jan 14, 8:00 AM)30.36 "Hg (Jan 14, 8:00 AM)
Low44 °F (Jan 18, 7:00 AM)20% (Jan 23, 5:00 PM)29.62 "Hg (Jan 19, 6:00 AM)
Average55 °F58%30.09 "Hg
* Reported Jan 14 8:00 AM — Jan 29 8:00 AM, Almería, Weather by CustomWeather, © 2014

Note: Actual official high and low records may vary slightly from our data, if they occured in-between our weather recording intervals... More about our weather records

Advertising

Almería weather history for previous 24 hours

 ConditionsComfort  
Time TempWeatherWind HumidityBarometerVisibility
8:00 AM
Jan 29
48 °FCool.6 mph56%30.07 "HgN/A
7:00 AM46 °FClear.2 mph71%30.07 "Hg19 mi
6:00 AM46 °FCool.1 mph84%30.08 "HgN/A
5:00 AM47 °FCool.6 mph89%30.09 "HgN/A
4:00 AM46 °FCool.3 mph86%30.10 "HgN/A
3:00 AM47 °FCool.5 mph86%30.11 "HgN/A
2:00 AM48 °FCool.3 mph84%30.14 "HgN/A
1:00 AM49 °FCool.2 mph82%30.15 "HgN/A
12:00 AM48 °FCool.3 mph80%30.16 "HgN/A
11:00 PM
Jan 28
50 °FCool.6 mph78%30.17 "HgN/A
10:00 PM51 °FClear.5 mph78%30.17 "Hg28 mi
9:00 PM55 °FCool.10 mph72%30.17 "HgN/A
8:00 PM56 °FCool.10 mph68%30.19 "HgN/A
7:00 PM57 °FPassing clouds.9 mph66%30.17 "Hg31 mi
6:00 PM59 °FCool.9 mph64%30.17 "HgN/A
5:00 PM61 °FRefreshingly cool.9 mph58%30.18 "HgN/A
4:00 PM62 °FSunny.10 mph59%30.19 "Hg25 mi
3:00 PM63 °FMild.10 mph53%30.20 "HgN/A
2:00 PM62 °FMild.8 mph48%30.22 "HgN/A
1:00 PM63 °FPassing clouds.5 mph47%30.24 "Hg28 mi
12:00 PM62 °FRefreshingly cool.5 mph52%30.24 "HgN/A
11:00 AM62 °FRefreshingly cool.2 mph46%30.25 "HgN/A
10:00 AM59 °FPassing clouds.7 mph63%30.24 "Hg28 mi
Weather by CustomWeather, © 2014

See weather overviewHow to use our weather pages